International Skating Union - Official Site

ISU World Cup Speed Skating Salt lake City
December 8-11, 2017

Draw | Lap Times | Index | World Cup

Referee: Susan  SANDVIG-SHOBE  (USA)
Starter: Darrell  HAACK  (CAN)
StartTime: EndTime: Air Temp: Ice Temp: Humidity:
13:41 13:58 15.7 ℃ -9.6 ℃ 20%
Result Team Pursuit Ladies
Rankings as of Dec 8 2017 6:22PM
Rank: No.: Team: Nation: Time: Behind: Points:
Total 8
1 12 Japan (255) Miho Takagi (253) Ayano Sato (256) Nana Takagi (250) Ayaka Kikuchi JPN JPN 2:50.870.5 - 18.23 - (18.2)
1.0 - 31.95 - (13.7)
1.5 - 45.63 - (13.6)
2.0 - 59.39 - (13.7)
2.5 - 1:13.35 - (13.9)
3.0 - 1:27.42 - (14.0)
3.5 - 1:41.17 - (13.7)
4.0 - 1:54.89 - (13.7)
4.5 - 2:08.90 - (14.0)
5.0 - 2:22.86 - (13.9)
5.5 - 2:36.76 - (13.8)
6.0 - 2:50.87 - (14.1)
WR 100
2 15 Netherlands (272) Marrit Leenstra (277) Melissa Wijfje (274) Lotte van Beek (269) Linda de Vries NED NED 2:55.570.5 - 18.48 - (18.4)
1.0 - 32.10 - (13.6)
1.5 - 45.75 - (13.6)
2.0 - 59.67 - (13.9)
2.5 - 1:13.76 - (14.0)
3.0 - 1:28.07 - (14.3)
3.5 - 1:42.60 - (14.5)
4.0 - 1:57.35 - (14.7)
4.5 - 2:11.94 - (14.5)
5.0 - 2:26.55 - (14.6)
5.5 - 2:40.99 - (14.4)
6.0 - 2:55.57 - (14.5)
4.70 80
3 10 Germany (242) Claudia Pechstein (240) Roxane Dufter (241) Gabriele Hirschbichler (243) Michelle Uhrig GER GER 2:56.140.5 - 18.86 - (18.8)
1.0 - 32.91 - (14.0)
1.5 - 47.12 - (14.2)
2.0 - 1:01.08 - (13.9)
2.5 - 1:15.26 - (14.1)
3.0 - 1:29.57 - (14.3)
3.5 - 1:44.00 - (14.4)
4.0 - 1:58.52 - (14.5)
4.5 - 2:13.02 - (14.5)
5.0 - 2:27.35 - (14.3)
5.5 - 2:41.64 - (14.2)
6.0 - 2:56.14 - (14.5)
5.27 70
4 5 China (220) Jiachen Hao (223) Jing Liu (222) Dan Li (219) Mei Han CHN CHN 2:56.230.5 - 18.66 - (18.6)
1.0 - 32.61 - (13.9)
1.5 - 46.64 - (14.0)
2.0 - 1:00.49 - (13.8)
2.5 - 1:14.59 - (14.1)
3.0 - 1:28.58 - (13.9)
3.5 - 1:42.74 - (14.1)
4.0 - 1:57.26 - (14.5)
4.5 - 2:11.73 - (14.4)
5.0 - 2:26.41 - (14.6)
5.5 - 2:41.16 - (14.7)
6.0 - 2:56.23 - (15.0)
5.36 60
5 4 Canada (208) Ivanie Blondin (214) Keri Morrison (217) Isabelle Weidemann (213) Josie Morrison CAN CAN 2:56.610.5 - 19.40 - (19.3)
1.0 - 33.41 - (14.0)
1.5 - 47.13 - (13.7)
2.0 - 1:01.00 - (13.8)
2.5 - 1:14.82 - (13.8)
3.0 - 1:28.84 - (14.0)
3.5 - 1:43.24 - (14.3)
4.0 - 1:57.63 - (14.3)
4.5 - 2:12.33 - (14.7)
5.0 - 2:27.20 - (14.8)
5.5 - 2:41.81 - (14.6)
6.0 - 2:56.61 - (14.8)
5.74 50
6 20 Russia (297) Natalia Voronina (294) Elizaveta Kazelina (295) Yekaterina Shikhova (292) Olga Graf RUS RUS 2:57.900.5 - 18.92 - (18.9)
1.0 - 33.37 - (14.4)
1.5 - 47.50 - (14.1)
2.0 - 1:01.58 - (14.0)
2.5 - 1:15.48 - (13.9)
3.0 - 1:29.57 - (14.0)
3.5 - 1:43.67 - (14.1)
4.0 - 1:58.26 - (14.5)
4.5 - 2:12.88 - (14.6)
5.0 - 2:27.74 - (14.8)
5.5 - 2:42.62 - (14.8)
6.0 - 2:57.90 - (15.2)
7.03 45
7 18 Poland (281) Katarzyna Bachleda-Curus (282) Karolina Bosiek (285) Katarzyna Wozniak (287) Luiza Zlotkowska POL POL 2:59.830.5 - 18.91 - (18.9)
1.0 - 33.30 - (14.3)
1.5 - 47.41 - (14.1)
2.0 - 1:01.64 - (14.2)
2.5 - 1:15.64 - (14.0)
3.0 - 1:29.90 - (14.2)
3.5 - 1:44.38 - (14.4)
4.0 - 1:59.33 - (14.9)
4.5 - 2:14.34 - (15.0)
5.0 - 2:29.47 - (15.1)
5.5 - 2:44.58 - (15.1)
6.0 - 2:59.83 - (15.2)
8.96 40
8 23 USA (307) Mia Manganello (301) Petra Acker (309) Carlijn Schoutens (306) Kelly Gunther USA USA 3:01.870.5 - 19.68 - (19.6)
1.0 - 34.00 - (14.3)
1.5 - 48.19 - (14.1)
2.0 - 1:02.45 - (14.2)
2.5 - 1:16.93 - (14.4)
3.0 - 1:31.70 - (14.7)
3.5 - 1:46.40 - (14.7)
4.0 - 2:01.27 - (14.8)
4.5 - 2:16.34 - (15.0)
5.0 - 2:31.39 - (15.0)
5.5 - 2:46.50 - (15.1)
6.0 - 3:01.87 - (15.3)
11.00 35